Regional Weather Roundup
Issued by NWS

Home | Current Version | Previous Version | Graphics & Text | Print | Product List | Glossary On
Versions: 1 2 3 4 5 6 7 8 9 10 11 12 13 14 15 16 17 18 19 20 21 22 23 24 25 26 27 28 29 30 31 32 33 34 35 36 37 38 39 40 41 42 43 44 45 46 47 48 49 50
000
ASUS43 KLOT 031712
RWRIL

ILLINOIS REGIONAL WEATHER ROUNDUP
NATIONAL WEATHER SERVICE CHICAGO/ROMEOVILLE IL
1200 PM CDT SUN MAY 03 2015

NOTE: "FAIR" INDICATES FEW OR NO CLOUDS BELOW 12,000 FEET WITH NO
SIGNIFICANT WEATHER AND/OR OBSTRUCTIONS TO VISIBILITY.

* THESE STATIONS ARE NOT UNDER NWS QUALITY CONTROL. THEY ALSO MAY NOT
  REPORT WEATHER SUCH AS PRECIPITATION OR FOG.

ILZ001-002-007-009-015-016-024-031800-
NORTHWEST ILLINOIS

CITY           SKY/WX    TMP DP  RH WIND       PRES   REMARKS
MOLINE         CLOUDY    76  56  49 S10G18    29.87S
STERLING*      CLOUDY    64  55  72 SE10      29.93F
SAVANNA*       CLOUDY    61  55  81 CALM      29.93R THUNDER
$$

ILZ003-004-008-010-011-017-018-031800-
NORTH CENTRAL ILLINOIS

CITY           SKY/WX    TMP DP  RH WIND       PRES   REMARKS
ROCKFORD       CLOUDY    67  55  65 S18       29.96R
FREEPORT*      CLOUDY    63  55  73 S15G22    29.93F
ROCHELLE*      RAIN      60  59  94 S10       29.98R
DE KALB*       RAIN      61  55  81 SW15G21   29.99R
PERU*          PTSUNNY   75  48  37 S10G17    29.97F
$$

ILZ005-006-012>014-019>023-031800-
NORTHEAST ILLINOIS

CITY           SKY/WX    TMP DP  RH WIND       PRES   REMARKS
CHICAGO-OHARE  PTSUNNY   75  47  36 S16G22    29.96F
CHICAGO-MIDWAY PTSUNNY   78  46  32 SW16      29.98S
AURORA         PTSUNNY   71  48  43 SW14      29.99R
LANSING*       PTSUNNY   76  42  29 SW16G24   29.99F
JOLIET*        PTSUNNY   78  50  36 SW10G16   29.98F
WAUKEGAN       CLOUDY    74  49  41 S18G24    29.95S
DUPAGE AIRPORT PTSUNNY   73  49  42 SW18      29.97S
KANKAKEE*      PTSUNNY   78  47  33 S18G25    30.01F
WHEELING       CLOUDY    74  46  36 S16       29.98R
MORRIS*        PTSUNNY   75  47  37 SW12      29.97F
ROMEOVILLE*    PTSUNNY   78  44  29 SW18      29.98F
NORTHERLY ISL    N/A     74  41  30 S18         N/A
$$

LMZ740>746-031800-
SOUTHERN LAKE MICHIGAN

STATION/POSITION SKY/WX   TEMP    WIND        PRES    VSBY  WAVE
                          AIR SEA DIR/SP/G                  HT/PER
                          (F)     (DEG/KT/KT) (MB)    (MI)  (FT/S)
HARRISON CRIB              67     190/ 15/ 18   N/A
BURNHAM HARBOR             75     230/  9/ 17   N/A
CALUMET HARBOR             74     190/  8/ 15   N/A
BURNS HARBOR               73     220/ 16/ 22 1016.3S
MICHIGAN CITY              72     180/ 20/ 24   N/A
MICHIGAN CITY 6N           63 50  230/ 10/ 12   N/A           1/ 3
ST. JOSEPH                 60 50  270/  8/  8   N/A           1
$$

ILZ025>027-034>036-040-047-049-050-058-095>099-031800-
WEST-CENTRAL ILLINOIS

CITY           SKY/WX    TMP DP  RH WIND       PRES   REMARKS
QUINCY         MOSUNNY   78  54  43 S15G23    29.94F
GALESBURG*     CLOUDY    75  53  46 S16G23    29.91F
MACOMB*        CLOUDY    80  52  38 S18G24    29.95F
JACKSONVILLE*  MOSUNNY   81  51  35 S14       29.97F HX  80
PITTSFIELD*    MOSUNNY   80  53  39 SW13G20   29.98S HX  80
$$

ILZ028>032-037-038-041>044-048-051>054-059>061-031800-
CENTRAL ILLINOIS

CITY           SKY/WX    TMP DP  RH WIND       PRES   REMARKS
PONTIAC        PTSUNNY   80  48  32 S13       29.99F
BLOOMINGTON    MOSUNNY   79  51  37 S22G29    30.00F
DECATUR        SUNNY     79  47  32 S18G25    30.01F
PEORIA         PTSUNNY   78  53  41 SW16      29.96F
LACON*         MOSUNNY   76  52  42 S12       29.95F
LINCOLN*       SUNNY     80  49  33 S13       29.96F HX  80
SPRINGFIELD    SUNNY     81  52  36 S14G21    29.98F HX  80
TAYLORVILLE    SUNNY     79  48  34 S16       30.01F
$$

ILZ033-039-045-046-055>057-062-063-031800-
EAST-CENTRAL ILLINOIS

CITY           SKY/WX    TMP DP  RH WIND       PRES   REMARKS
CHAMPAIGN      MOSUNNY   81  40  23 S21G30    30.02F
DANVILLE*      MOSUNNY   78  45  30 S17G24    30.02S
RANTOUL*       MOSUNNY   81  43  26 SW15      30.02S
MATTOON        SUNNY     74  45  35 S10G23    30.05F
PARIS*         MOSUNNY   77  46  33 S16       30.07S
$$

ILZ079-100>102-031800-
SOUTHWEST ILLINOIS

CITY           SKY/WX    TMP DP  RH WIND       PRES   REMARKS
ALTON          MOSUNNY   77 N/A N/A S10G17    30.01F
BELLEVILLE     SUNNY     78  53  41 VRB6      30.02F
CAHOKIA*       SUNNY     80  51  36 S8        30.00F HX  80
SPARTA*        SUNNY     73  51  44 S10G18    30.06F
$$

ILZ064>066-069>071-074>076-080>082-084>086-088>090-092>094-031800-
SOUTH-CENTRAL ILLINOIS

CITY           SKY/WX    TMP DP  RH WIND       PRES   REMARKS
CARBONDALE     MOSUNNY   75  50  41 S10       30.08S
CAIRO*         MOSUNNY   77  46  33 S8        30.10F
EFFINGHAM*     SUNNY     77  39  25 S10G17    30.07F
MARION         MOSUNNY   77  48  36 S12       30.09F
MT. VERNON     SUNNY    N/A N/A N/A S17       30.08S
CENTRALIA*     SUNNY     79  45  29 S16       30.06S
SALEM*         SUNNY     79  42  26 S10G20    30.06S
METROPOLIS*    PTSUNNY   76  48  36 S7        30.10S
$$

ILZ067-068-072-073-078-083-087-091-031800-
SOUTHEAST ILLINOIS

CITY           SKY/WX    TMP DP  RH WIND       PRES   REMARKS
LAWRENCEVILLE  SUNNY     78  48  34 SW13      30.08F
FLORA*         SUNNY     76  43  30 SW15G21   30.08S
FAIRFIELD*     SUNNY     77  46  33 S13       30.07S
HARRISBURG*    MOSUNNY   76  45  32 SW13G20   30.10F
ROBINSON*      SUNNY     77  45  32 SW16      30.09S
CARMI*         SUNNY     77  40  26 S14G20    30.08F
$$

ABBREVIATIONS USED IN REMARKS
   TC - TEMPERATURE IN CELSIUS
  WCI - WIND CHILL INDEX
   HX - HEAT INDEX
  VSB - VISIBILITY
$$



USA.gov is the U.S. government's official web portal to all federal, state and local government web resources and services.